Location: Newark
(52.3735°N, 16.9806°E)
Time: 04:32:36
(UTC+00:00)

LilacSat-2 - Pass Details

Date: 28 November 2021
Orbit: 511 x 532 km, 97.5° (Epoch: 16 January)

Event Time Altitude Azimuth Distance (km) Brightness Sun altitude
Rises 15:33:48 0° 162° (SSE) 2,621 ? -7.3°
Reaches altitude 10° 15:35:52 10° 161° (SSE) 1,742 ? -7.6°
Maximum altitude 15:39:37 82° 76° (ENE) 531 ? -8.1°
Drops below altitude 10° 15:43:26 10° 348° (NNW) 1,769 ? -8.6°
Sets 15:45:34 0° 347° (NNW) 2,667 ? -8.9°
